DW7512 Weather Reports


time (UTC)temp
C
wind
direction
speed
KPH
gust
KPH
rain 1hr
cm
rain 24hr
cm
rain mn
cm
humidity
%
barometer
mb
20260504160142 23 248 16.1 29.0 0.00 0.00 0.00 27 1001.4
20260504150925 21 209 12.9 25.7 0.00 0.00 0.00 33 1002.3
20260504150424 21 223 12.9 24.1 0.00 0.00 0.00 35 1002.2
20260504141229 16 176 9.7 20.9 0.00 0.00 0.00 43 1002.9
20260504140706 16 195 11.3 20.9 0.00 0.00 0.00 41 1003.0
20260504140200 16 231 11.3 20.9 0.00 0.00 0.00 42 1003.1
20260504120210 8 162 9.7 20.9 0.00 0.05 0.00 58 1003.8
20260504110431 8 176 9.7 14.5 0.00 0.05 0.00 55 1003.7
20260504100112 8 127 6.4 11.3 0.00 0.05 0.00 54 1004.2
20260504081551 10 196 4.8 11.3 0.00 0.05 0.00 49 1004.3
20260504081517 10 173 4.8 11.3 0.00 0.05 0.00 49 1005.1
20260504080519 10 216 6.4 11.3 0.00 0.05 0.00 49 1004.4
20260504050251 12 226 4.8 9.7 0.00 0.05 0.00 45 1006.2
20260504050012 12 193 4.8 9.7 0.00 0.05 0.00 45 1006.9
20260504045732 12 220 4.8 9.7 0.00 0.05 0.05 45 1006.2
20260504045226 12 202 6.4 9.7 0.00 0.05 0.05 45 1006.2
20260504044702 13 226 4.8 9.7 0.00 0.05 0.05 45 1006.2
20260504044510 12 215 3.2 11.3 0.00 0.05 0.05 45 1006.9
20260504043632 13 231 4.8 14.5 0.00 0.05 0.05 45 1006.2
20260504043131 13 223 6.4 14.5 0.00 0.05 0.05 45 1006.2
20260504043010 12 234 4.8 14.5 0.00 0.05 0.05 45 1006.9
20260504042601 13 189 6.4 12.9 0.00 0.05 0.05 46 1006.2
20260504042101 13 231 6.4 11.3 0.00 0.05 0.05 46 1006.2
20260504041601 13 226 6.4 14.5 0.00 0.05 0.05 46 1006.1
20260504041504 12 195 4.8 14.5 0.00 0.05 0.05 45 1006.9
20260504041103 13 173 6.4 14.5 0.00 0.05 0.05 46 1006.1
20260504040539 13 213 8.0 16.1 0.00 0.05 0.05 46 1006.1
20260504040015 12 187 6.4 16.1 0.00 0.05 0.05 45 1006.9
20260504040009 13 198 8.0 16.1 0.00 0.05 0.05 46 1006.1
20260504035500 13 207 6.4 12.9 0.00 0.05 0.05 46 1006.2
20260504035000 13 253 6.4 12.9 0.00 0.05 0.05 46 1006.2
20260504034516 13 221 4.8 16.1 0.00 0.05 0.05 45 1007.0
20260504034450 13 250 6.4 16.1 0.00 0.05 0.05 46 1006.2
20260504033420 13 187 6.4 12.9 0.00 0.05 0.05 46 1006.3
20260504033004 13 214 8.0 12.9 0.00 0.05 0.05 45 1007.1
20260504032919 13 211 6.4 12.9 0.00 0.05 0.05 45 1006.3
20260504032351 13 236 6.4 12.9 0.00 0.05 0.05 45 1006.3
20260504031843 13 225 6.4 12.9 0.00 0.05 0.05 45 1006.3
20260504031511 13 190 8.0 14.5 0.00 0.05 0.05 45 1007.0
20260504031321 13 216 6.4 14.5 0.00 0.05 0.05 45 1006.2
20260504030819 13 137 6.4 14.5 0.00 0.05 0.05 45 1006.2
20260504030305 13 187 6.4 16.1 0.00 0.05 0.05 45 1006.2
20260504030008 13 191 4.8 16.1 0.00 0.05 0.05 45 1007.0
20260504025806 14 203 6.4 16.1 0.00 0.05 0.05 45 1006.2
20260504025245 14 212 6.4 14.5 0.00 0.05 0.05 45 1006.3
20260504024747 14 218 6.4 11.3 0.00 0.05 0.05 45 1006.2
20260504024506 13 202 6.4 12.9 0.00 0.05 0.05 44 1007.0
20260504024233 14 194 6.4 12.9 0.00 0.05 0.05 45 1006.2
20260504023731 14 218 4.8 11.3 0.00 0.05 0.05 44 1006.2
20260504023215 14 194 4.8 11.3 0.00 0.05 0.05 44 1006.2
20260504023020 14 162 4.8 11.3 0.00 0.05 0.05 44 1006.9
20260504022715 15 174 6.4 11.3 0.00 0.05 0.05 44 1006.1
20260504022217 15 151 6.4 12.9 0.00 0.05 0.05 44 1006.0
20260504021509 15 225 6.4 14.5 0.00 0.05 0.05 43 1006.7
20260504021138 15 164 6.4 12.9 0.00 0.05 0.05 44 1005.9
20260504020637 15 182 6.4 12.9 0.00 0.05 0.05 43 1005.9
20260504020108 15 183 6.4 14.5 0.00 0.05 0.05 43 1005.9
20260504020007 15 178 4.8 14.5 0.00 0.05 0.05 43 1006.6
20260504015607 15 159 6.4 14.5 0.00 0.05 0.05 43 1005.8
20260504015039 16 182 6.4 16.1 0.00 0.05 0.05 43 1005.8
20260504014534 16 167 6.4 16.1 0.00 0.05 0.05 42 1005.8
20260504014510 16 167 4.8 17.7 0.00 0.05 0.05 42 1006.6
20260504014011 16 197 6.4 14.5 0.00 0.05 0.05 42 1005.8
20260504013008 16 212 6.4 14.5 0.00 0.05 0.05 41 1006.5
20260504012406 16 194 6.4 12.9 0.00 0.05 0.05 41 1005.6
20260504011507 17 207 6.4 16.1 0.00 0.05 0.05 39 1006.4
20260504011336 17 187 6.4 14.5 0.00 0.05 0.05 40 1005.6
20260504010813 17 186 6.4 17.7 0.00 0.05 0.05 38 1005.6
20260504010020 17 221 6.4 17.7 0.00 0.05 0.05 37 1006.5
20260504005738 18 198 9.7 17.7 0.00 0.05 0.05 38 1005.8
20260504005204 18 231 9.7 17.7 0.00 0.05 0.05 37 1005.8
20260504004700 18 203 9.7 17.7 0.00 0.05 0.05 37 1005.6
20260504004524 18 244 8.0 19.3 0.00 0.05 0.05 36 1006.6
20260504003635 18 149 8.0 20.9 0.00 0.05 0.05 36 1005.8
20260504003107 18 238 8.0 20.9 0.00 0.05 0.05 35 1005.8
20260504003013 18 178 6.4 22.5 0.00 0.05 0.05 35 1006.7
20260504002605 19 206 9.7 24.1 0.00 0.05 0.05 35 1005.8
20260504002036 19 184 11.3 24.1 0.00 0.05 0.05 35 1005.8
20260504001529 19 165 12.9 27.4 0.00 0.05 0.05 34 1006.6
20260504001458 19 236 12.9 27.4 0.00 0.05 0.05 34 1005.8
20260504000016 19 225 12.9 33.8 0.00 0.05 0.05 33 1006.6
20260503234909 20 223 12.9 27.4 0.00 0.05 0.05 32 1005.6
20260503234516 20 196 14.5 29.0 0.00 0.05 0.05 32 1006.5
20260503234351 20 215 16.1 32.2 0.00 0.05 0.05 32 1005.6
20260503233854 20 240 16.1 32.2 0.00 0.05 0.05 32 1005.6
20260503233328 20 257 19.3 35.4 0.00 0.05 0.05 32 1005.8
20260503233012 20 234 14.5 40.2 0.00 0.05 0.05 31 1006.5
20260503232755 20 202 19.3 38.6 0.00 0.05 0.05 31 1005.6
20260503232253 20 219 16.1 32.2 0.00 0.05 0.05 32 1005.8
20260503231750 20 218 12.9 32.2 0.00 0.05 0.05 32 1005.6
20260503231516 20 229 12.9 30.6 0.00 0.05 0.05 30 1006.5
20260503231242 20 214 11.3 27.4 0.00 0.05 0.05 30 1005.8
20260503230719 20 239 12.9 27.4 0.00 0.05 0.05 31 1005.8
20260503230146 20 236 11.3 27.4 0.00 0.05 0.05 31 1005.9
20260503230022 20 205 14.5 25.7 0.00 0.05 0.05 31 1006.6
20260503225649 20 239 12.9 27.4 0.00 0.05 0.05 31 1005.8
20260503225120 20 209 14.5 29.0 0.00 0.05 0.05 30 1005.9
20260503224619 20 236 12.9 29.0 0.00 0.05 0.05 30 1005.9
20260503224504 20 221 16.1 29.0 0.00 0.05 0.05 30 1006.7
20260503224103 20 213 12.9 29.0 0.00 0.05 0.05 31 1005.8
20260503223606 20 230 12.9 29.0 0.00 0.05 0.05 30 1005.9
20260503223031 20 226 12.9 30.6 0.00 0.05 0.05 31 1005.8
20260503223007 20 269 9.7 32.2 0.00 0.05 0.05 30 1006.7
20260503222528 20 228 14.5 30.6 0.00 0.05 0.05 30 1005.9
20260503222003 20 207 14.5 38.6 0.00 0.05 0.05 30 1005.9
20260503221512 20 234 11.3 38.6 0.00 0.05 0.05 30 1006.6
20260503221440 21 236 14.5 38.6 0.00 0.05 0.05 30 1005.8
20260503220406 21 250 16.1 32.2 0.00 0.05 0.05 30 1006.0
20260503220012 20 211 12.9 32.2 0.00 0.05 0.05 30 1006.9
20260503215326 21 213 16.1 35.4 0.00 0.05 0.05 29 1006.1
20260503214809 21 220 16.1 30.6 0.00 0.05 0.05 29 1006.1
20260503214507 21 221 17.7 29.0 0.00 0.05 0.05 28 1006.9
20260503214240 21 220 14.5 32.2 0.00 0.05 0.05 29 1006.1
20260503213739 21 197 16.1 33.8 0.00 0.05 0.05 30 1006.2
20260503213005 21 242 14.5 37.0 0.00 0.05 0.05 30 1006.9
20260503212709 21 288 17.7 35.4 0.00 0.05 0.05 29 1006.2
20260503212133 21 296 16.1 37.0 0.00 0.05 0.05 28 1006.2
20260503211624 21 227 14.5 37.0 0.00 0.05 0.05 28 1006.2
20260503211504 21 214 14.5 32.2 0.00 0.05 0.05 28 1007.0
20260503210122 21 279 16.1 35.4 0.00 0.05 0.05 28 1006.3
20260503210006 21 213 14.5 37.0 0.00 0.05 0.05 27 1007.1
20260503205553 21 231 16.1 38.6 0.00 0.05 0.05 27 1006.5
20260503204524 21 245 19.3 41.8 0.00 0.05 0.05 29 1006.5
20260503204504 21 232 14.5 41.8 0.00 0.05 0.05 29 1007.3
20260503204027 21 232 16.1 41.8 0.00 0.05 0.05 27 1006.7
20260503203453 21 227 16.1 35.4 0.00 0.05 0.05 29 1006.6
20260503203006 21 218 17.7 38.6 0.00 0.05 0.05 28 1007.6
20260503202950 21 183 20.9 41.8 0.00 0.05 0.05 29 1006.8
20260503201945 21 226 19.3 51.5 0.00 0.05 0.05 28 1006.8
20260503201508 21 259 12.9 41.8 0.00 0.05 0.05 28 1007.6
20260503200349 20 211 20.9 46.7 0.00 0.05 0.05 29 1007.2
20260503200008 20 186 17.7 38.6 0.00 0.05 0.05 28 1007.9
20260503195851 20 202 19.3 40.2 0.00 0.05 0.05 29 1007.2
20260503195346 20 234 20.9 38.6 0.00 0.05 0.05 29 1007.3
20260503194838 20 219 20.9 38.6 0.00 0.05 0.05 29 1007.4
20260503194508 20 216 22.5 38.6 0.00 0.05 0.05 29 1008.1
20260503193840 20 183 20.9 43.5 0.00 0.05 0.05 29 1007.4
20260503193307 20 204 20.9 43.5 0.00 0.05 0.05 29 1007.7
20260503193006 20 185 25.7 43.5 0.00 0.05 0.05 29 1008.4
20260503192805 20 218 19.3 43.5 0.00 0.05 0.05 30 1007.7
20260503192259 19 183 20.9 43.5 0.00 0.05 0.05 32 1007.8
20260503191505 18 209 22.5 53.1 0.00 0.05 0.05 30 1008.8
20260503191229 18 219 24.1 46.7 0.00 0.05 0.05 30 1008.1
20260503190659 18 186 24.1 46.7 0.00 0.05 0.05 30 1008.1
20260503190158 19 203 22.5 43.5 0.00 0.05 0.05 30 1008.2
20260503190016 18 212 22.5 43.5 0.00 0.05 0.05 29 1009.0
20260503185632 19 160 24.1 54.7 0.00 0.05 0.05 30 1008.2
20260503185108 19 185 25.7 54.7 0.00 0.05 0.05 29 1008.4
20260503184602 19 181 24.1 46.7 0.00 0.05 0.05 29 1008.4
20260503184516 18 175 25.7 54.7 0.00 0.05 0.05 30 1009.2
20260503184039 18 214 22.5 46.7 0.00 0.05 0.05 30 1008.4
20260503183538 18 165 25.7 49.9 0.00 0.05 0.05 30 1008.8
20260503183012 18 205 27.4 49.9 0.00 0.05 0.05 28 1009.6
20260503182502 18 173 24.1 46.7 0.00 0.05 0.05 30 1008.8
20260503181517 17 221 27.4 54.7 0.00 0.05 0.05 33 1009.9
20260503181430 18 176 27.4 53.1 0.00 0.05 0.05 33 1009.0
20260503180929 17 199 27.4 53.1 0.00 0.05 0.05 33 1009.1
20260503180421 17 162 25.7 41.8 0.00 0.05 0.05 33 1009.1
20260503180014 17 173 27.4 46.7 0.00 0.05 0.05 33 1009.9
20260503175358 17 142 24.1 43.5 0.00 0.05 0.05 35 1009.2
20260503174842 17 184 25.7 43.5 0.00 0.05 0.05 38 1009.2
20260503174514 16 168 27.4 54.7 0.00 0.05 0.05 36 1010.1
20260503174318 16 176 25.7 46.7 0.00 0.05 0.05 38 1009.3
20260503173809 16 186 25.7 46.7 0.00 0.05 0.05 38 1009.4
20260503173251 16 176 27.4 41.8 0.00 0.05 0.05 40 1009.6
20260503173016 16 218 29.0 49.9 0.00 0.05 0.05 38 1010.2
20260503172740 16 173 27.4 43.5 0.00 0.05 0.05 42 1009.6
20260503172232 16 186 27.4 43.5 0.00 0.05 0.05 41 1009.9
20260503171707 15 157 25.7 40.2 0.00 0.05 0.05 42 1009.9
20260503171524 15 180 32.2 46.7 0.00 0.05 0.05 41 1010.7
20260503170616 15 178 20.9 35.4 0.00 0.05 0.05 43 1010.3